Regional Weather Roundup
Issued by NWS

Home | Current Version | Previous Version | Graphics & Text | Print | Product List | Glossary Off
Versions: 1 2 3 4 5 6 7 8 9 10 11 12 13 14 15 16 17 18 19 20 21 22 23 24 25 26 27 28 29 30 31 32 33 34 35 36 37 38 39 40 41 42 43 44 45 46 47 48 49 50

000
ASUS45 KSLC 022310
RWRUT

UTAH REGIONAL WEATHER ROUNDUP
NATIONAL WEATHER SERVICE SALT LAKE CITY UT
500 PM MDT TUE JUN 02 2015

UTZ001>011-023>025-030000-

NORTHERN UTAH

CITY           SKY/WX    TMP DP  RH WIND       PRES   REMARKS
BRIGHAM CITY   SUNNY     78  42  28 SW9       29.94S
HILL AFB       SUNNY     77  40  26 NW8       29.96F
LOGAN          SUNNY     76  48  37 W7        29.93F
OGDEN          SUNNY     78  42  27 NW12      29.94F
PROVO AIRPORT  MOSUNNY   82  39  21 NW12G17   29.91F
SALT LAKE CITY MOSUNNY   80  44  27 N12       29.92S
VERNAL         SUNNY     81  28  14 VRB7      29.92F
WENDOVER       MOSUNNY   79  37  22 SE5       29.93S
HEBER CITY     SUNNY     79  27  14 SW9G21    29.97S
WEST JORDAN    SUNNY     77  45  31 NW16      29.96S

$$

UTZ012>022-026-027-030000-

SOUTHERN/CENTRAL UTAH

CITY           SKY/WX    TMP DP  RH WIND       PRES   REMARKS
BLANDING       SUNNY     82  16   8 SW16      30.09F
BRYCE CANYON   SUNNY     72  18  13 VRB6G24   30.13F
CEDAR CITY     SUNNY     80  19  10 SW20G25   29.99F
DELTA          SUNNY     84  20   9 W6        29.92F
HANKSVILLE     SUNNY     90  21   8 SW12G23   29.88F
MILFORD        SUNNY     83  18   9 SW22G28   29.94F
MOAB/CYNLANDS  SUNNY     88  16   7 SW13      29.88F
PRICE          SUNNY     84  18   8 VRB3      29.95F
ST GEORGE      CLEAR     93  28  10 W17       29.84F

$$

REGIONAL REPORTS     COLORADO/ARIZONA

CITY           SKY/WX    TMP DP  RH WIND       PRES   REMARKS
CRAIG, CO      SUNNY     78  34  20 SW15      30.00F
GRAND JUNCTION SUNNY     87  18   8 NW17      29.89F
RIFLE          SUNNY     84  28  13 W14G21    29.94F
MONTROSE       SUNNY     85  16   7 SW18G26   30.00F
CORTEZ         SUNNY     82  20  10 SE5       30.05F
PAGE, AZ       SUNNY     92  15   6 NE12      29.89F
GRAND CANYON   SUNNY     78  15   9 SW17G31   30.11F
KINGMAN        SUNNY     89  20   8 W21G30    29.91F
FLAGSTAFF      SUNNY     74  24  15 SW22G30   30.16F

$$

REGIONAL REPORTS    NEVADA/IDAHO/WYOMING

CITY           SKY/WX    TMP DP  RH WIND       PRES   REMARKS
LAS VEGAS, NV  SUNNY     95  18   6 S16G22    29.75F
ELY            MOSUNNY   77  38  24 VRB5      30.00F
ELKO           SUNNY     74  28  18 W13       29.99F
POCATELLO, ID  MOSUNNY   72  43  35 SW15      29.98F
BURLEY         MOSUNNY   72  44  36 W10       29.96F
EVANSTON, WY   SUNNY     71  31  22 W25G31    30.06F
ROCK SPRINGS   MOSUNNY   72  30  21 SW12      30.02S
KEMMERER       MOSUNNY   68  32  26 W18G32    30.08S

$$


USA.gov is the U.S. government's official web portal to all federal, state and local government web resources and services.